Newark Heath, OH

10:26 PM EDT on April 20, 2018 (GMT -0400)
Newark Heath

Weather History for KVTA - December, 2012

Change the Weather History Date:

Friday, December 7, 2012

  Actual Average Record
Temperature  
Mean Temperature 46 °F -  
Max Temperature 51 °F 41 °F 66 °F (1951)
Min Temperature 42 °F 27 °F 0 °F (1958)
Degree Days  
Heating Degree Days 18    
Moisture  
Dew Point 45 °F    
Average Humidity 93    
Maximum Humidity 100    
Minimum Humidity 87    
Precipitation  
Precipitation 0.77 in - - ()
Sea Level Pressure  
Sea Level Pressure 29.94 in    
Wind  
Wind Speed 1 mph (NE)    
Max Wind Speed 6 mph    
Max Gust Speed -    
Visibility 3 miles    
Events Fog , Rain    
Averages and records for this station are not official NWS values.
T = Trace of Precipitation, MM = Missing Value Source: NWS Daily Summary

Daily Weather History Graph

Daily Weather History Graph

Search for Another Location

Airport or City:

Astronomy

Dec. 07, 2012 Rise Set
Actual Time 7:38 AM EST 5:04 PM EST
Civil Twilight 7:08 AM EST 5:34 PM EST
Nautical Twilight 6:34 AM EST 6:08 PM EST
Astronomical Twilight 6:01 AM EST 6:41 PM EST
Moon 12:56 AM EST (12/7) 1:00 PM EST (12/7)
Length of Visible Light 10h 26m
Length of Day
9h 25m
Last Quarter, 39% of the Moon is Illuminated
Dec 7
Last Quarter
Dec 13
New
Dec 20
First Quarter
Dec 28
Full
Jan 4
Last Quarter

Hourly Weather History & Observations

Time (EST) Temp. Windchill Dew Point Humidity Pressure Visibility Wind Dir Wind Speed Gust Speed Precip Events Conditions
12:54 AM 43.0 °F - 39.9 °F 89% 29.99 in 10.0 mi Calm Calm - 0.02 in   Overcast
1:04 AM 42.8 °F - 39.2 °F 87% 29.98 in 8.0 mi Calm Calm - N/A   Overcast
1:19 AM 42.8 °F - 39.2 °F 87% 29.97 in 2.5 mi Calm Calm - 0.02 in Rain Light Rain
1:28 AM 44.6 °F - 41.0 °F 87% 29.97 in 4.0 mi Calm Calm - 0.04 in Rain Light Rain
1:54 AM 43.0 °F 41.3 °F 41.0 °F 93% 29.99 in 4.0 mi NW 3.5 mph - 0.05 in Rain Light Rain
2:51 AM 42.8 °F - 42.8 °F 100% 29.98 in 2.5 mi Calm Calm - 0.05 in Rain Light Rain
2:54 AM 43.0 °F - 42.1 °F 97% 30.00 in 2.5 mi Calm Calm - 0.05 in Rain Light Rain
3:50 AM 44.6 °F - 42.8 °F 93% 29.97 in 1.5 mi Calm Calm - 0.08 in Rain Light Rain
3:54 AM 44.1 °F - 42.1 °F 93% 29.98 in 1.5 mi Calm Calm - 0.10 in Rain Rain
4:04 AM 44.6 °F - 42.8 °F 93% 29.97 in 1.2 mi Calm Calm - 0.02 in Rain Light Rain
4:19 AM 44.6 °F - 42.8 °F 93% 29.96 in 2.0 mi Calm Calm - 0.03 in Rain Light Rain
4:54 AM 44.1 °F - 42.1 °F 93% 29.98 in 2.0 mi Calm Calm - 0.06 in Rain Light Rain
5:27 AM 44.6 °F - 42.8 °F 93% 29.97 in 3.0 mi Calm Calm - 0.00 in Rain Light Rain
5:46 AM 44.6 °F - 42.8 °F 93% 29.97 in 2.5 mi Calm Calm - 0.00 in   Overcast
5:54 AM 45.0 °F - 43.0 °F 93% 29.98 in 2.5 mi Calm Calm - 0.00 in   Overcast
6:30 AM 44.6 °F - 44.6 °F 100% 29.96 in 1.5 mi Calm Calm - N/A   Overcast
6:38 AM 44.6 °F - 44.6 °F 100% 29.96 in 1.2 mi Calm Calm - 0.00 in Rain Light Rain
7:03 AM 44.6 °F - 44.6 °F 100% 29.97 in 0.8 mi Calm Calm - N/A   Overcast
7:26 AM 46.4 °F - 44.6 °F 93% 29.98 in 0.5 mi Calm Calm - N/A Fog Fog
7:54 AM 46.9 °F - 46.0 °F 97% 30.00 in 0.5 mi Calm Calm - N/A Fog Fog
8:14 AM 46.4 °F - 44.6 °F 93% 29.99 in 0.2 mi Calm Calm - N/A Fog Fog
8:54 AM 48.0 °F - 46.0 °F 93% 30.00 in 0.5 mi Calm Calm - 0.00 in Fog , Rain Light Rain
9:12 AM 48.2 °F - 46.4 °F 93% 30.00 in 1.8 mi West 5.8 mph - 0.01 in Rain Light Rain
9:20 AM 48.2 °F - 46.4 °F 93% 29.99 in 2.0 mi Calm Calm - 0.01 in Rain Light Rain
9:29 AM 48.2 °F - 46.4 °F 93% 29.99 in 3.0 mi Calm Calm - 0.01 in Rain Light Rain
9:54 AM 48.0 °F - 46.9 °F 96% 30.01 in 5.0 mi WSW 3.5 mph - 0.01 in Rain Light Rain
10:54 AM 48.9 °F - 46.0 °F 90% 30.01 in 10.0 mi South 3.5 mph - 0.00 in   Overcast
11:54 AM 50.0 °F - 46.9 °F 89% 29.99 in 7.0 mi Calm Calm - 0.00 in Rain Light Rain
12:54 PM 50.0 °F - 48.0 °F 93% 29.96 in 4.0 mi Calm Calm - 0.01 in Rain Light Rain
1:37 PM 51.8 °F - 48.2 °F 88% 29.94 in 4.0 mi Calm Calm - 0.02 in Rain Light Rain
1:54 PM 51.1 °F - 48.0 °F 89% 29.94 in 4.0 mi Calm Calm - 0.02 in Rain Light Rain
2:32 PM 50.0 °F - 48.2 °F 94% 29.92 in 3.0 mi Calm Calm - 0.03 in Rain Light Rain
2:38 PM 50.0 °F - 48.2 °F 94% 29.92 in 2.5 mi Calm Calm - 0.04 in Rain Light Rain
2:54 PM 51.1 °F - 48.9 °F 92% 29.93 in 2.5 mi Calm Calm - 0.05 in Rain Light Rain
3:22 PM 50.0 °F - 46.4 °F 87% 29.92 in 5.0 mi SSE 3.5 mph - 0.03 in Rain Light Rain
3:54 PM 48.9 °F - 46.0 °F 90% 29.92 in 5.0 mi Calm Calm - 0.07 in Rain Light Rain
4:22 PM 48.2 °F - 46.4 °F 93% 29.91 in 6.0 mi Calm Calm - 0.02 in Rain Light Rain
4:54 PM 48.9 °F - 46.9 °F 93% 29.91 in 5.0 mi Calm Calm - 0.03 in Rain Light Rain
5:54 PM 48.9 °F - 46.9 °F 93% 29.92 in 4.0 mi Calm Calm - 0.06 in Rain Light Rain
6:10 PM 50.0 °F - 48.2 °F 94% 29.92 in 2.5 mi Calm Calm - 0.02 in Rain Rain
6:54 PM 48.9 °F - 48.0 °F 97% 29.90 in 4.0 mi NE 3.5 mph - 0.09 in Rain Light Rain
7:23 PM 50.0 °F - 46.4 °F 87% 29.90 in 5.0 mi ENE 5.8 mph - 0.02 in Rain Light Rain
7:34 PM 48.2 °F - 46.4 °F 93% 29.89 in 4.0 mi ENE 4.6 mph - 0.03 in Rain Light Rain
7:54 PM 48.9 °F - 48.0 °F 97% 29.90 in 3.0 mi Calm Calm - 0.05 in Rain Light Rain
8:54 PM 48.9 °F - 46.9 °F 93% 29.89 in 4.0 mi Calm Calm - 0.02 in Rain Light Rain
9:18 PM 48.2 °F - 46.4 °F 93% 29.87 in 2.5 mi NE 3.5 mph - 0.01 in Rain Light Rain
9:25 PM 48.2 °F - 46.4 °F 93% 29.87 in 4.0 mi NE 3.5 mph - 0.01 in Rain Light Rain
9:43 PM 48.2 °F - 46.4 °F 93% 29.87 in 4.0 mi Calm Calm - 0.01 in Rain Light Rain
9:54 PM 48.9 °F - 46.9 °F 93% 29.88 in 3.0 mi Calm Calm - 0.02 in Rain Light Rain
10:04 PM 48.2 °F - 46.4 °F 93% 29.87 in 2.5 mi North 3.5 mph - 0.02 in Rain Light Rain
10:23 PM 48.2 °F - 48.2 °F 100% 29.86 in 4.0 mi Calm Calm - 0.03 in Rain Light Rain
10:54 PM 48.9 °F - 46.9 °F 93% 29.87 in 2.5 mi Calm Calm - 0.05 in Rain Light Rain
11:12 PM 48.2 °F - 46.4 °F 93% 29.85 in 1.5 mi Calm Calm - 0.00 in Rain Light Rain
11:43 PM 48.2 °F - 46.4 °F 93% 29.85 in 2.0 mi Calm Calm - 0.01 in Rain Light Rain
11:52 PM 48.2 °F - 46.4 °F 93% 29.85 in 1.8 mi Calm Calm - 0.01 in Rain Light Rain
11:54 PM 48.9 °F - 46.9 °F 93% 29.85 in 1.8 mi Calm Calm - 0.01 in   Overcast